Showing default

TERRA, 25994

Orbit data source: Space-Track

TERRA, 25994 is a payload satellite owned by GSFC (US) in SSO that was launched on Sat, 18 Dec 1999 UTC via an ATLAS IIAS launch vehicle from the Air Force Western Test Range (AFWTR). Payload-class satellites include a variety of spacecraft equipped with specific instruments for various scientific and technological missions. These include communications satellites like Starlink; space stations such as the ISS; scientific satellites like the Hubble; Earth observation satellites from companies like Planet Labs, Umbra, and HawkEye 360; GPS; miniature CubeSats for education and research; and military/defense satellites.

Loading next visibility...
Identifier
25994, 1999-068A
Orbit
SSO
Country
Flag of USUS
Related business
Manufacturer
LM/Valley Forge
Mission
Extended mission Civil Imaging
Bus & Motor
EOS, AOCS
Mass
5,190 kg wet, 4,854 kg dry
Launch date (UTC)
1999-12-18 (26 years ago)
Launch vehicle
ATLAS IIAS
Launch site
Air Force Western Test Range (AFWTR)
Object type
Payload
Rocket body
Debris
Shape & HBR
Box + 1 Pan, 12.0 m
Radar Cross Section
32.932 m², Large (>1 m²)

Expand to show TLE details & history
Last TLE update: 4 hours ago

TLE from 4 hours ago
0 TERRA
1 25994U 99068A   26164.88860163  .00000364  00000-0  83151-4 0  9995
2 25994  97.9457 214.5655 0001324 201.8095 331.1346 14.61100761409129
Epoch: 2026-06-13T21:19Z
TLE epoch observation values (Epoch: 2026-06-13T21:19:35.180Z)
Latitude
6.91981°
Longitude
173.43706°
Altitude
691.164 km
Speed
7.512 km/s
True Right ascension
02h 22m 07s
True Declination
6° 52' 42"
Sunlit
Object was in daylight at epoch
Visualization orbit readout
Latitude
Unknown
Longitude
Unknown
Altitude
Unknown
Speed
Unknown
Apparent Right ascension
Unknown
Apparent Declination
Unknown
Sunlit
N/A
Visualization observer readout
Local Sidereal Time
11:26:46
Azimuth
Unknown
Elevation
Unknown
Doppler factor
Unknown
Orbital elements
Apogee altitude
687.626 km
Perigee altitude
685.755 km
Semi-major axis
7,064.827 km
Eccentricity
0.00013
Inclination
97.9457°
RAAN
214.5655°
Arg. of periapsis
201.8095°
True anomaly
331.12727°
Mean anomaly
331.1346°
Eccentric anomaly
331.13094°
Mean motion
3.65503 °/min
Orbital period
98.49 mins
BSTAR
0.000083151
Loading maneuver chart data...
Computing Atmospheric mass density...
Loading historical data...
Loading historical data...
Loading historical data...
Loading historical data...
Loading historical data...
Loading historical data...
Loading historical data...
Other satellites on launch #68 in the year 1999 (1999-12-18 UTC)

Documentation

Showing up to 5 results
|